Location: Broekland
(52.3610°N, 6.2005°E)
Time: 07:16:03
(UTC+00:00)

PKM - Pass Details

Date: 19 May 2025
Orbit: 410 x 13726 km, 55.3° (Epoch: 21 June)

Event Time Altitude Azimuth Distance (km) Brightness Sun altitude
Rises 22:17:32 0° 245° (WSW) 2,375 7.0 -15.9°
Reaches altitude 10° 22:19:16 10° 245° (WSW) 1,483 5.9 -16.0°
Maximum altitude 22:22:00 86° 156° (SSE) 495 3.5 -16.1°
Drops below altitude 10° 22:26:36 10° 68° (ENE) 2,488 7.2 -16.3°
Sets 22:30:28 0° 69° (ENE) 4,369 8.5 -16.4°
